Regional Weather Roundup
Issued by NWS

Home | Current Version | Previous Version | Graphics & Text | Print | Product List | Glossary On
Versions: 1 2 3 4 5 6 7 8 9 10 11 12 13 14 15 16 17 18 19 20 21 22 23 24 25 26 27 28 29 30 31 32 33 34 35 36 37 38 39 40 41 42 43 44 45 46 47 48 49 50
000
ASUS45 KABQ 012010
RWRNM
NEW MEXICO REGIONAL WEATHER ROUNDUP
NATIONAL WEATHER SERVICE ALBUQUERQUE NM
200 PM MDT SUN MAY 01 2016

NOTE: "FAIR" MEANS FEW OR NO CLOUDS BELOW 12,000 FEET AGL WITH NO
       SIGNIFICANT WEATHER OR OBSTRUCTIONS TO VISION.

      THIS PRODUCT IS RELEASED AS TWO VERSIONS.  ONE VERSION NEAR
      THE TOP OF THE HOUR CONTAINING PRELIMINARY DATA FROM ALBUQUERQUE
      AND OTHER STATIONS.  A FINAL VERSION WITH ADDITIONAL DATA IS
      ISSUED ABOUT 10 MINUTES AFTER THE HOUR.

NMZ501-503-504-510>518-012100-
NORTHWEST PLATEAU/NORTHCENTRAL MOUNTAINS

CITY           SKY/WX    TMP DP  RH WIND       PRES   REMARKS
FARMINGTON     CLOUDY    46  40  79 E14G21    30.05S
LOS ALAMOS     LGT RAIN  35  35 100 W3        30.16S
SANTA FE       LGT RAIN  42  36  79 N3        30.14S
TAOS           CLOUDY    37  30  75 N12       30.15F WCI  30
ANGEL FIRE     CLOUDY    34  24  68 N18G25    30.18S WCI  23

$$
NMZ402-403-502-505>509-012100-
WESTCENTRAL MOUNTAINS/SOUTHWEST MOUNTAINS

CITY           SKY/WX    TMP DP  RH WIND       PRES   REMARKS
GALLUP         CLOUDY    40  36  86 S5        30.06R
GRANTS         CLOUDY    41  36  81 SE21G26   30.09R
SILVER CITY      N/A     59  27  29 SW12G24   30.01F

$$
NMZ407-409-411-412-012100-
SOUTHERN DESERTS

CITY           SKY/WX    TMP DP  RH WIND       PRES   REMARKS
LORDSBURG      FAIR      70  28  21 SW9G25    29.94S
DEMING         FAIR      70  16  12 SW17G24   29.94F
LAS CRUCES     FAIR      67  31  26 E15G26    29.99F
HOLLOMAN AFB   FAIR      68  33  26 S17       29.96F
ALAMOGORDO     PTSUNNY   68  32  26 N7G16     29.98F
T OR C         LGT RAIN  59  34  39 E9        29.99R

$$
NMZ519>523-012100-
CENTRAL VALLEYS/CENTRAL HIGHLANDS

CITY           SKY/WX    TMP DP  RH WIND       PRES   REMARKS
ALBUQUERQUE    PTSUNNY   52  29  41 E30G44    30.09R
DOUBLE EAGLE   PTSUNNY   50  32  50 E29G35    30.11S
MORIARTY ARPT  CLOUDY    40  29  65 E13G22    30.19F WCI  32
CLINES CORNERS CLOUDY    32  29  88 E23G30    30.16S WCI  19
BELEN          PTSUNNY   58  28  31 SE24      30.07S
SOCORRO        CLOUDY    51  37  58 E9        30.08S

$$
NMZ524>526-539-540-012100-
SOUTHCENTRAL MOUNTAINS

CITY           SKY/WX    TMP DP  RH WIND       PRES   REMARKS
RUIDOSO        LGT SNOW  32  32 100 SE10      30.19F WCI  24

$$
NMZ527>531-012100-
NORTHEAST HIGHLANDS/NORTHEAST PLAINS

CITY           SKY/WX    TMP DP  RH WIND       PRES   REMARKS
RATON          CLOUDY    38  27  64 N20G29    30.20F WCI  28
CLAYTON        LGT RAIN  39  36  89 N21G29    30.21S WCI  29

$$
NMZ532>537-012100-
EASTCENTRAL PLAINS

CITY           SKY/WX    TMP DP  RH WIND       PRES   REMARKS
TUCUMCARI      LGT RAIN  42  38  85 NE18      30.21F
CANNON AFB     CLOUDY    42  38  85 NE26G33   30.18F
CLOVIS AIRPORT CLOUDY    43  34  70 NE24G30   30.20F

$$
NMZ028-029-538-012100-
SOUTHEAST PLAINS

CITY           SKY/WX    TMP DP  RH WIND       PRES   REMARKS
ROSWELL        CLOUDY    46  37  71 N16G23    30.19F
ARTESIA        CLOUDY    48  36  61 N18G25    30.19S
CARLSBAD       CLOUDY    49  35  58 N17       30.16F
HOBBS          CLOUDY    48  36  61 N18       30.15S


$$




USA.gov is the U.S. government's official web portal to all federal, state and local government web resources and services.